Abilene, TX

3:54 AM CDT on March 26, 2017 (GMT -0500)
Abilene Regional

Weather History for KABI - October, 2012

Change the Weather History Date:

Thursday, October 4, 2012

  Actual Average Record
Temperature  
Mean Temperature 70 °F 69 °F  
Max Temperature 82 °F 81 °F 98 °F (1951)
Min Temperature 58 °F 58 °F 43 °F (1902)
Degree Days  
Heating Degree Days 0 1  
Month to date heating degree days 0 4  
Since 1 July heating degree days 6 15  
Cooling Degree Days 5 6  
Month to date cooling degree days 16 25  
Year to date cooling degree days 2889 2296  
Growing Degree Days 20 (Base 50)    
Moisture  
Dew Point 58 °F    
Average Humidity 73    
Maximum Humidity 93    
Minimum Humidity 53    
Precipitation  
Precipitation 0.00 in 0.08 in 2.09 in (1986)
Month to date precipitation 0.00 0.34  
Year to date precipitation 22.14 19.54  
Sea Level Pressure  
Sea Level Pressure 30.02 in    
Wind  
Wind Speed 10 mph (SSE)    
Max Wind Speed 21 mph    
Max Gust Speed 25 mph    
Visibility 10 miles    
Events      
T = Trace of Precipitation, MM = Missing Value Source: NWS Daily Summary

Daily Weather History Graph

Daily Weather History Graph

Search for Another Location

Airport or City:

Trip Planner

Search our weather history database for the weather conditions in past years. The results will help you decide how hot, cold, wet, or windy it might be!

Date:

Astronomy

Oct. 04, 2012 Rise Set
Actual Time 7:35 AM CDT 7:18 PM CDT
Civil Twilight 7:10 AM CDT 7:43 PM CDT
Nautical Twilight 6:42 AM CDT 8:11 PM CDT
Astronomical Twilight 6:13 AM CDT 8:40 PM CDT
Moon 10:11 PM CDT (10/4) 11:38 AM CDT (10/4)
Length of Visible Light 12h 32m
Length of Day
11h 43m
Waning Gibbous, 82% of the Moon is Illuminated
Oct 4
Waning Gibbous
Oct 8
Last Quarter
Oct 15
New
Oct 21
First Quarter
Oct 29
Full

Hourly Weather History & Observations

Time (CDT) Temp. Heat Index Dew Point Humidity Pressure Visibility Wind Dir Wind Speed Gust Speed Precip Events Conditions
12:52 AM 70.0 °F - 57.0 °F 63% 29.90 in 10.0 mi SSE 12.7 mph 20.7 mph N/A   Clear
1:52 AM 68.0 °F - 57.0 °F 68% 29.90 in 10.0 mi SSE 11.5 mph - N/A   Clear
2:52 AM 66.0 °F - 57.0 °F 73% 29.90 in 10.0 mi SE 11.5 mph - N/A   Clear
3:52 AM 66.0 °F - 57.0 °F 73% 29.90 in 10.0 mi SSE 13.8 mph - N/A   Clear
4:52 AM 64.9 °F - 59.0 °F 81% 29.90 in 10.0 mi SE 10.4 mph - N/A   Clear
5:52 AM 64.0 °F - 60.1 °F 87% 29.91 in 10.0 mi SSE 12.7 mph - N/A   Clear
6:52 AM 64.9 °F - 61.0 °F 87% 29.92 in 10.0 mi SSE 15.0 mph - N/A   Clear
7:40 AM 64.4 °F - 60.8 °F 88% 30.00 in 10.0 mi SSE 10.4 mph - N/A   Partly Cloudy
7:52 AM 64.0 °F - 62.1 °F 93% 29.95 in 10.0 mi SSE 8.1 mph - N/A   Clear
8:52 AM 68.0 °F - 64.0 °F 87% 29.99 in 10.0 mi South 6.9 mph - N/A   Partly Cloudy
9:31 AM 71.6 °F - 64.4 °F 78% 30.07 in 10.0 mi SSE 4.6 mph - N/A   Mostly Cloudy
9:52 AM 71.1 °F - 64.9 °F 81% 30.02 in 10.0 mi South 9.2 mph - N/A   Overcast
10:52 AM 73.0 °F - 66.0 °F 79% 30.03 in 10.0 mi SSW 5.8 mph - N/A   Overcast
11:50 AM 75.2 °F - 64.4 °F 69% 30.10 in 10.0 mi Variable 4.6 mph - N/A   Partly Cloudy
11:52 AM 75.9 °F - 64.0 °F 67% 30.04 in 10.0 mi Variable 6.9 mph - N/A   Partly Cloudy
12:27 PM 75.2 °F - 64.4 °F 69% 30.11 in 10.0 mi SW 3.5 mph - N/A   Overcast
12:52 PM 77.0 °F - 64.0 °F 64% 30.05 in 10.0 mi NW 4.6 mph - N/A   Overcast
1:52 PM 81.0 °F 82.2 °F 63.0 °F 54% 30.04 in 10.0 mi Calm Calm - N/A   Mostly Cloudy
2:52 PM 77.0 °F - 60.1 °F 56% 30.04 in 10.0 mi North 17.3 mph - N/A   Mostly Cloudy
3:52 PM 73.0 °F - 55.9 °F 55% 30.06 in 10.0 mi NNW 16.1 mph - N/A   Mostly Cloudy
4:52 PM 70.0 °F - 53.1 °F 55% 30.08 in 10.0 mi NNW 15.0 mph - N/A   Partly Cloudy
5:52 PM 66.9 °F - 52.0 °F 59% 30.09 in 10.0 mi NNW 15.0 mph - N/A   Clear
6:52 PM 64.9 °F - 51.1 °F 61% 30.10 in 10.0 mi North 11.5 mph - N/A   Clear
7:52 PM 62.1 °F - 51.1 °F 67% 30.10 in 10.0 mi North 11.5 mph - N/A   Clear
8:52 PM 60.1 °F - 50.0 °F 69% 30.11 in 10.0 mi North 8.1 mph - N/A   Clear
9:52 PM 59.0 °F - 50.0 °F 72% 30.12 in 10.0 mi North 8.1 mph - N/A   Clear
10:52 PM 57.9 °F - 51.1 °F 78% 30.12 in 10.0 mi North 8.1 mph - N/A   Clear
11:52 PM 57.9 °F - 52.0 °F 81% 30.12 in 10.0 mi North 6.9 mph - N/A   Mostly Cloudy